Powrót do katalogu

DMSP 5D-2 F11 DEB

AktywnySSO
NORAD 28304·DEBRIS·🇺🇸 United States

Wystrzelony Nov 28, 1991 z Vandenberg Space Force Base

Loading…

Następne Przeloty (najbliższe 24 godziny)

TLE

ŚwieżeSource: Space-Track

Epoka: Sep 14, 2026, 01:20 UTC

1 28304U 91082R   26257.05606231  .00000050  00000-0  46389-4 0  9991
2 28304  98.6879 282.8622 0013150  34.7461 351.8006 14.17057096157760

Śledź DMSP 5D-2 F11 DEB w czasie rzeczywistym z AllMySat

Download on the App Store